| time (UTC) | temp C | wind direction | speed KPH | gust KPH | rain 1hr cm | rain 24hr cm | rain mn cm | humidity % | barometer mb |
| 20260507203016 | 12 | 44 | 11.3 | 20.9 | 0.00 | 1.37 | 0.99 | 75 | 1014.7 |
| 20260507201529 | 12 | 10 | 11.3 | 16.1 | 0.00 | 1.37 | 0.99 | 74 | 1014.5 |
| 20260507200026 | 12 | 325 | 8.0 | 14.5 | 0.00 | 1.37 | 0.99 | 73 | 1014.3 |
| 20260507194531 | 12 | 22 | 0.0 | 17.7 | 0.00 | 1.57 | 0.99 | 73 | 1014.2 |
| 20260507193034 | 13 | 9 | 12.9 | 17.7 | 0.00 | 1.57 | 0.99 | 73 | 1013.9 |
| 20260507191525 | 13 | 5 | 14.5 | 19.3 | 0.00 | 1.57 | 0.99 | 71 | 1013.7 |
| 20260507190022 | 13 | 5 | 12.9 | 19.3 | 0.00 | 1.57 | 0.99 | 70 | 1013.6 |
| 20260507184542 | 13 | 34 | 11.3 | 17.7 | 0.00 | 1.78 | 0.99 | 70 | 1013.5 |
| 20260507183025 | 13 | 17 | 16.1 | 20.9 | 0.00 | 1.78 | 0.99 | 71 | 1013.3 |
| 20260507181516 | 14 | 55 | 11.3 | 17.7 | 0.00 | 1.78 | 0.99 | 69 | 1013.1 |
| 20260507180035 | 15 | 36 | 8.0 | 14.5 | 0.00 | 1.78 | 0.99 | 67 | 1012.9 |
| 20260507174532 | 15 | 85 | 8.0 | 14.5 | 0.00 | 2.31 | 0.99 | 66 | 1012.8 |
| 20260507173036 | 16 | 69 | 6.4 | 11.3 | 0.00 | 2.31 | 0.99 | 64 | 1012.8 |
| 20260507171534 | 17 | 20 | 6.4 | 14.5 | 0.00 | 2.31 | 0.99 | 59 | 1012.7 |
| 20260507170028 | 17 | 86 | 1.6 | 14.5 | 0.00 | 2.31 | 0.99 | 57 | 1012.5 |
| 20260507164530 | 17 | 14 | 6.4 | 14.5 | 0.00 | 3.02 | 0.99 | 57 | 1012.5 |
| 20260507163034 | 18 | 219 | 3.2 | 11.3 | 0.00 | 3.02 | 0.99 | 53 | 1012.4 |
| 20260507161549 | 18 | 360 | 1.6 | 11.3 | 0.00 | 3.02 | 0.99 | 57 | 1012.4 |
| 20260507160027 | 18 | 285 | 3.2 | 11.3 | 0.00 | 3.02 | 0.99 | 55 | 1012.4 |
| 20260507154516 | 18 | 242 | 6.4 | 16.1 | 0.00 | 6.25 | 0.99 | 57 | 1012.5 |
| 20260507153035 | 17 | 229 | 4.8 | 12.9 | 0.00 | 6.25 | 0.99 | 65 | 1012.4 |
| 20260507151522 | 17 | 201 | 4.8 | 12.9 | 0.00 | 6.25 | 0.99 | 60 | 1012.4 |
| 20260507150038 | 19 | 186 | 8.0 | 17.7 | 0.00 | 6.25 | 0.99 | 53 | 1012.4 |
| 20260507144534 | 18 | 226 | 4.8 | 22.5 | 0.00 | 6.27 | 0.99 | 53 | 1012.4 |
| 20260507143025 | 19 | 205 | 8.0 | 17.7 | 0.00 | 6.27 | 0.99 | 63 | 1012.3 |
| 20260507141533 | 18 | 199 | 11.3 | 19.3 | 0.00 | 6.27 | 0.99 | 59 | 1012.5 |
| 20260507140025 | 17 | 153 | 3.2 | 11.3 | 0.00 | 6.27 | 0.99 | 64 | 1012.5 |
| 20260507134520 | 18 | 159 | 9.7 | 16.1 | 0.00 | 6.27 | 0.99 | 63 | 1012.6 |
| 20260507133032 | 17 | 186 | 1.6 | 11.3 | 0.00 | 6.27 | 0.99 | 60 | 1012.7 |
| 20260507131522 | 16 | 171 | 1.6 | 11.3 | 0.00 | 6.27 | 0.99 | 61 | 1012.9 |
| 20260507130041 | 17 | 253 | 6.4 | 16.1 | 0.00 | 6.27 | 0.99 | 62 | 1012.9 |
| 20260507124536 | 18 | 217 | 9.7 | 16.1 | 0.00 | 6.27 | 0.99 | 64 | 1013.0 |
| 20260507121531 | 18 | 201 | 8.0 | 16.1 | 0.03 | 6.27 | 0.99 | 59 | 1013.0 |
| 20260507120031 | 17 | 227 | 6.4 | 14.5 | 0.03 | 6.27 | 0.99 | 62 | 1013.0 |
| 20260507114525 | 17 | 236 | 8.0 | 12.9 | 0.03 | 6.27 | 0.99 | 67 | 1013.2 |
| 20260507113058 | 17 | 223 | 8.0 | 19.3 | 0.00 | 6.25 | 0.97 | 66 | 1013.2 |
| 20260507111537 | 17 | 190 | 9.7 | 16.1 | 0.00 | 6.25 | 0.97 | 66 | 1013.5 |
| 20260507110021 | 17 | 198 | 6.4 | 16.1 | 0.00 | 6.25 | 0.97 | 64 | 1013.6 |
| 20260507104540 | 17 | 168 | 6.4 | 16.1 | 0.00 | 6.25 | 0.97 | 66 | 1013.6 |
| 20260507103027 | 16 | 181 | 0.0 | 12.9 | 0.00 | 6.25 | 0.97 | 64 | 1013.7 |
| 20260507101525 | 16 | 114 | 3.2 | 11.3 | 0.00 | 6.25 | 0.97 | 64 | 1013.8 |
| 20260507100036 | 15 | 168 | 4.8 | 14.5 | 0.00 | 6.25 | 0.97 | 72 | 1014.0 |
| 20260507094524 | 15 | 219 | 6.4 | 16.1 | 0.00 | 6.45 | 0.97 | 73 | 1013.7 |
| 20260507093020 | 15 | 360 | 8.0 | 20.9 | 0.00 | 6.45 | 0.97 | 76 | 1013.7 |
| 20260507091536 | 15 | 210 | 9.7 | 14.5 | 0.00 | 6.45 | 0.97 | 77 | 1013.7 |
| 20260507090023 | 15 | 175 | 3.2 | 11.3 | 0.00 | 6.45 | 0.97 | 75 | 1013.8 |
| 20260507084544 | 13 | 240 | 0.0 | 4.8 | 0.00 | 6.65 | 0.97 | 74 | 1013.8 |
| 20260507083037 | 13 | 242 | 1.6 | 6.4 | 0.00 | 6.65 | 0.97 | 80 | 1013.9 |
| 20260507081536 | 13 | 132 | 0.0 | 3.2 | 0.00 | 6.65 | 0.97 | 76 | 1013.8 |
| 20260507080024 | 13 | 111 | 3.2 | 9.7 | 0.03 | 6.65 | 0.97 | 76 | 1013.7 |
| 20260507074538 | 12 | 238 | 1.6 | 4.8 | 0.03 | 6.81 | 0.97 | 80 | 1013.7 |
| 20260507073029 | 12 | 342 | 4.8 | 12.9 | 0.05 | 6.81 | 0.97 | 84 | 1013.6 |
| 20260507071524 | 10 | 20 | 0.0 | 6.4 | 0.05 | 6.81 | 0.97 | 89 | 1013.6 |
| 20260507070035 | 9 | 360 | 8.0 | 12.9 | 0.05 | 6.78 | 0.94 | 90 | 1013.5 |
| 20260507064529 | 8 | 5 | 3.2 | 6.4 | 0.08 | 6.81 | 0.94 | 89 | 1013.4 |
| 20260507063024 | 9 | 283 | 0.0 | 6.4 | 0.05 | 6.78 | 0.91 | 90 | 1013.2 |
| 20260507061537 | 9 | 21 | 4.8 | 14.5 | 0.08 | 6.78 | 0.91 | 88 | 1013.0 |
| 20260507060036 | 9 | 331 | 1.6 | 17.7 | 0.08 | 6.76 | 0.89 | 87 | 1013.1 |
| 20260507054524 | 8 | 17 | 9.7 | 17.7 | 0.08 | 6.86 | 0.86 | 87 | 1013.0 |
| 20260507053036 | 8 | 5 | 11.3 | 17.7 | 0.10 | 6.86 | 0.86 | 88 | 1012.7 |
| 20260507051528 | 8 | 355 | 0.0 | 9.7 | 0.08 | 6.83 | 0.84 | 89 | 1012.7 |
| 20260507050028 | 8 | 355 | 9.7 | 17.7 | 0.08 | 6.81 | 0.81 | 89 | 1012.5 |
| 20260507044536 | 7 | 360 | 8.0 | 14.5 | 0.08 | 6.88 | 0.79 | 90 | 1012.4 |
| 20260507043029 | 7 | 5 | 6.4 | 8.0 | 0.08 | 6.86 | 0.76 | 90 | 1012.3 |
| 20260507041526 | 7 | 10 | 4.8 | 8.0 | 0.10 | 6.86 | 0.76 | 90 | 1012.2 |
| 20260507040018 | 7 | 338 | 4.8 | 8.0 | 0.10 | 6.83 | 0.71 | 89 | 1012.2 |
| 20260507034535 | 8 | 343 | 4.8 | 9.7 | 0.10 | 6.81 | 0.71 | 89 | 1012.3 |
| 20260507033025 | 7 | 333 | 6.4 | 9.7 | 0.08 | 6.78 | 0.69 | 89 | 1012.1 |
| 20260507031520 | 8 | 9 | 3.2 | 17.7 | 0.08 | 6.76 | 0.66 | 89 | 1012.2 |
| 20260507030031 | 8 | 18 | 17.7 | 25.7 | 0.08 | 6.73 | 0.64 | 89 | 1012.1 |
| 20260507024529 | 8 | 28 | 3.2 | 12.9 | 0.08 | 6.73 | 0.61 | 92 | 1012.2 |
| 20260507023036 | 8 | 210 | 1.6 | 12.9 | 0.13 | 6.73 | 0.61 | 91 | 1012.2 |
| 20260507021537 | 8 | 13 | 3.2 | 14.5 | 0.13 | 6.71 | 0.58 | 91 | 1012.1 |
| 20260507020044 | 8 | 360 | 14.5 | 20.9 | 0.15 | 6.68 | 0.56 | 91 | 1011.9 |
| 20260507014520 | 8 | 31 | 14.5 | 19.3 | 0.15 | 6.63 | 0.51 | 91 | 1011.7 |
| 20260507013032 | 8 | 18 | 6.4 | 14.5 | 0.13 | 6.60 | 0.48 | 91 | 1011.5 |
| 20260507011538 | 8 | 17 | 11.3 | 16.1 | 0.15 | 6.58 | 0.46 | 90 | 1011.4 |
| 20260507010038 | 8 | 22 | 4.8 | 9.7 | 0.13 | 6.53 | 0.41 | 91 | 1011.4 |
| 20260507003021 | 8 | 325 | 0.0 | 6.4 | 0.15 | 6.45 | 0.36 | 90 | 1011.6 |
| 20260507001545 | 8 | 5 | 9.7 | 17.7 | 0.13 | 6.40 | 0.30 | 90 | 1011.4 |
| 20260507000040 | 8 | 13 | 8.0 | 14.5 | 0.13 | 6.40 | 0.28 | 90 | 1011.5 |
| 20260506234527 | 8 | 5 | 8.0 | 14.5 | 0.15 | 6.45 | 0.25 | 91 | 1011.5 |
| 20260506233036 | 8 | 20 | 6.4 | 12.9 | 0.13 | 6.40 | 0.20 | 90 | 1011.5 |
| 20260506231531 | 8 | 309 | 12.9 | 19.3 | 0.15 | 6.35 | 0.18 | 91 | 1011.4 |
| 20260506230026 | 8 | 355 | 8.0 | 19.3 | 0.15 | 6.35 | 0.15 | 91 | 1011.3 |
| 20260506224535 | 7 | 10 | 11.3 | 17.7 | 0.15 | 6.73 | 0.10 | 91 | 1011.4 |
| 20260506223033 | 7 | 30 | 9.7 | 16.1 | 0.15 | 6.71 | 0.08 | 92 | 1011.4 |
| 20260506221525 | 7 | 355 | 9.7 | 16.1 | 0.15 | 6.65 | 0.03 | 92 | 1011.4 |
| 20260506220037 | 7 | 355 | 9.7 | 16.1 | 0.15 | 6.63 | 0.00 | 92 | 1011.3 |
| 20260506214532 | 7 | 349 | 6.4 | 9.7 | 0.18 | 7.72 | 6.58 | 91 | 1011.4 |
| 20260506213024 | 7 | 329 | 6.4 | 16.1 | 0.18 | 7.70 | 6.55 | 91 | 1011.3 |
| 20260506211537 | 7 | 24 | 12.9 | 19.3 | 0.20 | 7.65 | 6.50 | 91 | 1011.3 |
| 20260506210046 | 7 | 30 | 8.0 | 12.9 | 0.23 | 7.62 | 6.45 | 91 | 1011.4 |
| 20260506204522 | 7 | 34 | 4.8 | 12.9 | 0.20 | 7.67 | 6.40 | 91 | 1011.4 |